{"data":{"norad_id":52347,"intl_designator":"2022-045S","name":"STARLINK-3826","alt_names":[],"object_type":"PAYLOAD","status":"ACTIVE","operator":null,"country":"US","launch_date":"2022-04-29","launch_site_code":"AFETR","launch_vehicle":null,"mission":null,"orbit_class":"UNKNOWN","rcs_meters":null,"size_class":null,"mass_kg":null,"dimensions":null,"purposes":["comms"],"wikipedia_slug":null,"has_3d_model":false,"image_url":null,"decayed_at":null,"tle_current":{"epoch":"2026-09-20T00:15:11.613312Z","epoch_age_seconds":101966,"freshness":"FRESH","line1":"1 52347U 22045S   26263.01055108  .00000083  00000+0  13872-4 0  9998","line2":"2 52347  53.1616  32.2010 0001234  78.9068 281.2073 15.33543808245319","mean_motion":15.33543808,"eccentricity":0.0001234,"inclination_deg":53.1616,"raan_deg":32.201,"arg_perigee_deg":78.9068,"mean_anomaly_deg":281.2073,"bstar":1.3872e-5,"rev_number":24531,"period_min":93.900154171533,"perigee_km":464.40473331435,"apogee_km":466.09368103028,"semimajor_km":6843.3862071723,"source":"CELESTRAK","updated_at":"2026-09-20T09:00:40.024172Z"}}}